User: anonymous   Login
Location: Great Snoring
(52.8667°N, 0.8833°E)
Time: 09:30:41
(UTC+00:00)
Language:

IRS-1C Rocket - Orbit

View from above orbital plane
View from above orbital plane
View from above satellite
View from above satellite

Ground track
Ground track

The orbit data is extracted from the following two-line orbital elements,

1 23753U 95072C   25198.14865098  .00000011  00000-0  22892-4 0  9998
2 23753  98.7492 264.6298 0003550   5.0137 355.1078 14.26950386538343
Epoch (UTC): 17 July 2025 03:34:03
Eccentricity: 0.0003550
inclination: 98.7492°
perigee height: 799 km
apogee height: 804 km
right ascension of ascending node: 264.6298°
argument of perigee: 5.0137°
revolutions per day: 14.26950386
mean anomaly at epoch: 355.1078°
orbit number at epoch: 53834

The dashed part of the orbit path shows where the satellite is in the earth's shadow,  

DLR